Station Historical Data
Daily Summary for June 30, 2017 Units:  English    Metric   Both
« Previous Day
Next Day »
Daily Weekly Monthly Yearly Custom
  High: Low: Average:
Temperature: 76.0 °F 68.5 °F 72.5 °F
Dew Point: 68.3 °F 64.2 °F 66 °F
Humidity: 90% 74% 80%
Wind Speed: 13.0mph 0.0mph 4.4mph
Wind Gust: 22.0mph - -
Wind- - SW
Pressure: 29.89 in 29.82 in -
Precipitation: 0.00 in    
Historical Graphs
 
 
Tabular Data for June 30, 2017
Time Temperature Dew Point Pressure Wind Wind Speed Wind Gust Humidity Rainfall Rate (Hourly)
00:04 73.3 °F 65.7 °F 29.84 in Calm   3.0 mph 77% 0.00 in
00:09 73.0 °F 65.4 °F 29.83 in Calm   3.0 mph 77% 0.00 in
00:14 72.7 °F 65.4 °F 29.83 in WSW 2.0 mph 2.0 mph 78% 0.00 in
00:19 72.5 °F 65.2 °F 29.83 in Calm   2.0 mph 78% 0.00 in
00:24 72.4 °F 65.5 °F 29.83 in Calm   2.0 mph 79% 0.00 in
00:29 72.5 °F 65.2 °F 29.83 in SSW 1.0 mph 4.0 mph 78% 0.00 in
00:34 72.4 °F 65.2 °F 29.83 in SW 2.0 mph 4.0 mph 78% 0.00 in
00:39 72.5 °F 65.2 °F 29.83 in SW 2.0 mph 5.0 mph 78% 0.00 in
00:44 72.7 °F 65.1 °F 29.83 in SSW 1.0 mph 6.0 mph 77% 0.00 in
00:49 73.0 °F 65.4 °F 29.83 in WSW 5.0 mph 7.0 mph 77% 0.00 in
00:54 73.0 °F 65.0 °F 29.83 in SW 3.0 mph 7.0 mph 76% 0.00 in
00:59 73.2 °F 65.2 °F 29.84 in West 5.0 mph 7.0 mph 76% 0.00 in
01:04 73.5 °F 65.1 °F 29.84 in SW 1.0 mph 9.0 mph 75% 0.00 in
01:09 73.7 °F 65.3 °F 29.84 in SSW 5.0 mph 8.0 mph 75% 0.00 in
01:14 73.9 °F 65.1 °F 29.84 in SW 5.0 mph 9.0 mph 74% 0.00 in
01:19 74.0 °F 65.2 °F 29.84 in SW 2.0 mph 8.0 mph 74% 0.00 in
01:24 74.1 °F 65.3 °F 29.84 in SW 4.0 mph 9.0 mph 74% 0.00 in
01:29 74.0 °F 65.2 °F 29.84 in SW 4.0 mph 10.0 mph 74% 0.00 in
01:34 74.1 °F 65.3 °F 29.84 in SW 3.0 mph 9.0 mph 74% 0.00 in
01:39 74.0 °F 65.2 °F 29.85 in SW 5.0 mph 9.0 mph 74% 0.00 in
01:44 74.0 °F 65.2 °F 29.85 in SW 11.0 mph 12.0 mph 74% 0.00 in
01:49 74.1 °F 65.3 °F 29.85 in SW 4.0 mph 11.0 mph 74% 0.00 in
01:54 74.0 °F 65.6 °F 29.85 in WSW 4.0 mph 11.0 mph 75% 0.00 in
01:59 73.9 °F 65.5 °F 29.85 in West 5.0 mph 10.0 mph 75% 0.00 in
02:04 74.0 °F 65.6 °F 29.85 in WSW 4.0 mph 10.0 mph 75% 0.00 in
02:09 74.0 °F 65.6 °F 29.85 in WSW 5.0 mph 12.0 mph 75% 0.00 in
02:14 74.1 °F 65.7 °F 29.85 in WSW 5.0 mph 12.0 mph 75% 0.00 in
02:19 74.1 °F 65.7 °F 29.85 in WSW 2.0 mph 9.0 mph 75% 0.00 in
02:24 74.2 °F 65.8 °F 29.85 in WSW 8.0 mph 10.0 mph 75% 0.00 in
02:29 74.2 °F 65.8 °F 29.85 in SW 7.0 mph 12.0 mph 75% 0.00 in
02:34 74.2 °F 65.8 °F 29.85 in WSW 4.0 mph 10.0 mph 75% 0.00 in
02:39 74.0 °F 65.6 °F 29.85 in WSW 5.0 mph 7.0 mph 75% 0.00 in
02:44 73.9 °F 65.9 °F 29.85 in SW 4.0 mph 8.0 mph 76% 0.00 in
02:49 73.9 °F 65.9 °F 29.85 in West 4.0 mph 8.0 mph 76% 0.00 in
02:54 73.8 °F 65.4 °F 29.85 in SW 4.0 mph 8.0 mph 75% 0.00 in
02:59 73.9 °F 65.5 °F 29.85 in WSW 5.0 mph 12.0 mph 75% 0.00 in
03:04 74.0 °F 65.6 °F 29.85 in WSW 5.0 mph 12.0 mph 75% 0.00 in
03:09 74.0 °F 65.6 °F 29.85 in SW 4.0 mph 9.0 mph 75% 0.00 in
03:14 73.9 °F 65.5 °F 29.85 in SW 4.0 mph 8.0 mph 75% 0.00 in
03:19 73.9 °F 65.5 °F 29.85 in SW 4.0 mph 8.0 mph 75% 0.00 in
03:24 73.9 °F 65.1 °F 29.84 in SSW 3.0 mph 8.0 mph 74% 0.00 in
03:29 73.7 °F 65.3 °F 29.84 in WSW 4.0 mph 7.0 mph 75% 0.00 in
03:34 73.7 °F 65.3 °F 29.84 in SW 2.0 mph 7.0 mph 75% 0.00 in
03:39 73.5 °F 65.1 °F 29.84 in SW 2.0 mph 6.0 mph 75% 0.00 in
03:44 73.4 °F 65.0 °F 29.83 in SW 1.0 mph 7.0 mph 75% 0.00 in
03:49 73.3 °F 64.9 °F 29.83 in SW 3.0 mph 7.0 mph 75% 0.00 in
03:54 73.3 °F 64.9 °F 29.83 in SW 3.0 mph 6.0 mph 75% 0.00 in
03:59 73.2 °F 64.8 °F 29.83 in SW 3.0 mph 6.0 mph 75% 0.00 in
04:04 73.0 °F 64.6 °F 29.83 in SW 2.0 mph 6.0 mph 75% 0.00 in
04:09 72.9 °F 64.9 °F 29.83 in SW 2.0 mph 5.0 mph 76% 0.00 in
04:14 72.7 °F 64.7 °F 29.83 in SSW 2.0 mph 6.0 mph 76% 0.00 in
04:19 72.8 °F 64.8 °F 29.82 in SW 2.0 mph 6.0 mph 76% 0.00 in
04:24 72.8 °F 64.8 °F 29.82 in SSW 4.0 mph 6.0 mph 76% 0.00 in
04:29 72.8 °F 65.2 °F 29.83 in SSW 3.0 mph 8.0 mph 77% 0.00 in
04:34 72.7 °F 65.1 °F 29.83 in Calm   4.0 mph 77% 0.00 in
04:39 72.6 °F 65.0 °F 29.83 in SSW 1.0 mph 6.0 mph 77% 0.00 in
04:44 72.6 °F 65.0 °F 29.83 in SSW 6.0 mph 7.0 mph 77% 0.00 in
04:49 72.5 °F 64.9 °F 29.83 in SSW 2.0 mph 7.0 mph 77% 0.00 in
04:54 72.5 °F 64.9 °F 29.84 in SW 2.0 mph 6.0 mph 77% 0.00 in
04:59 72.4 °F 64.8 °F 29.84 in SW 2.0 mph 5.0 mph 77% 0.00 in
05:04 72.3 °F 65.1 °F 29.84 in SW 2.0 mph 6.0 mph 78% 0.00 in
05:09 72.2 °F 65.0 °F 29.84 in SW 2.0 mph 6.0 mph 78% 0.00 in
05:14 72.2 °F 65.0 °F 29.84 in SSW 2.0 mph 7.0 mph 78% 0.00 in
05:19 72.3 °F 65.1 °F 29.85 in SW 2.0 mph 7.0 mph 78% 0.00 in
05:24 72.4 °F 65.2 °F 29.85 in SW 5.0 mph 8.0 mph 78% 0.00 in
05:29 72.5 °F 65.2 °F 29.85 in SW 5.0 mph 7.0 mph 78% 0.00 in
05:34 72.6 °F 65.3 °F 29.85 in SSW 1.0 mph 7.0 mph 78% 0.00 in
05:39 72.6 °F 65.3 °F 29.86 in South 4.0 mph 9.0 mph 78% 0.00 in
05:44 72.4 °F 65.5 °F 29.86 in WSW 4.0 mph 12.0 mph 79% 0.00 in
05:49 72.2 °F 65.3 °F 29.87 in SW 5.0 mph 12.0 mph 79% 0.00 in
05:54 72.2 °F 65.3 °F 29.87 in SW 6.0 mph 13.0 mph 79% 0.00 in
05:59 72.3 °F 65.1 °F 29.88 in WSW 7.0 mph 15.0 mph 78% 0.00 in
06:04 72.4 °F 65.2 °F 29.88 in WSW 8.0 mph 17.0 mph 78% 0.00 in
06:09 72.2 °F 65.0 °F 29.88 in WSW 12.0 mph 22.0 mph 78% 0.00 in
06:14 72.1 °F 64.9 °F 29.87 in South 10.0 mph 17.0 mph 78% 0.00 in
06:19 71.6 °F 65.1 °F 29.88 in SW 12.0 mph 19.0 mph 80% 0.00 in
06:24 71.2 °F 65.1 °F 29.88 in WSW 9.0 mph 20.0 mph 81% 0.00 in
06:29 70.6 °F 64.8 °F 29.88 in WSW 7.0 mph 16.0 mph 82% 0.01 in
06:34 70.1 °F 65.0 °F 29.88 in South 8.0 mph 15.0 mph 84% 0.01 in
06:39 69.7 °F 65.0 °F 29.89 in SW 3.0 mph 14.0 mph 85% 0.01 in
06:44 69.4 °F 65.0 °F 29.89 in SW 4.0 mph 15.0 mph 86% 0.02 in
06:49 69.1 °F 65.1 °F 29.89 in WSW 6.0 mph 15.0 mph 87% 0.03 in
06:54 68.9 °F 65.2 °F 29.89 in WSW 7.0 mph 12.0 mph 88% 0.03 in
06:59 68.7 °F 65.0 °F 29.89 in West 4.0 mph 8.0 mph 88% 0.03 in
07:04 68.6 °F 64.9 °F 29.89 in SSW 3.0 mph 10.0 mph 88% 0.03 in
07:09 68.5 °F 65.1 °F 29.89 in SSW 4.0 mph 11.0 mph 89% 0.03 in
07:14 68.5 °F 65.1 °F 29.89 in WSW 5.0 mph 8.0 mph 89% 0.04 in
07:19 68.6 °F 65.5 °F 29.89 in SW 5.0 mph 10.0 mph 90% 0.04 in
07:24 68.7 °F 65.6 °F 29.89 in SW 5.0 mph 13.0 mph 90% 0.04 in
07:29 68.7 °F 65.6 °F 29.89 in SW 6.0 mph 15.0 mph 90% 0.03 in
07:34 68.8 °F 65.7 °F 29.89 in SW 6.0 mph 15.0 mph 90% 0.03 in
07:39 68.7 °F 65.6 °F 29.89 in SW 5.0 mph 11.0 mph 90% 0.02 in
07:44 68.8 °F 65.7 °F 29.89 in SSW 4.0 mph 9.0 mph 90% 0.02 in
07:49 69.0 °F 65.9 °F 29.89 in SW 7.0 mph 8.0 mph 90% 0.01 in
07:54 69.0 °F 65.9 °F 29.89 in SW 4.0 mph 9.0 mph 90% 0.01 in
07:59 69.2 °F 66.1 °F 29.88 in South 3.0 mph 8.0 mph 90% 0.01 in
08:04 69.3 °F 65.9 °F 29.88 in WSW 3.0 mph 10.0 mph 89% 0.01 in
08:09 69.5 °F 66.1 °F 29.88 in SW 3.0 mph 6.0 mph 89% 0.01 in
08:14 69.7 °F 66.3 °F 29.87 in SW 4.0 mph 8.0 mph 89% 0.00 in
08:19 70.0 °F 66.6 °F 29.87 in SW 3.0 mph 8.0 mph 89% 0.00 in
08:24 70.4 °F 67.0 °F 29.87 in WSW 2.0 mph 5.0 mph 89% 0.00 in
08:29 70.4 °F 66.7 °F 29.87 in WSW 2.0 mph 5.0 mph 88% 0.00 in
08:34 70.6 °F 66.9 °F 29.87 in WSW 2.0 mph 5.0 mph 88% 0.00 in
08:39 70.6 °F 66.5 °F 29.87 in WSW 2.0 mph 5.0 mph 87% 0.00 in
08:44 70.7 °F 66.6 °F 29.86 in SSW 2.0 mph 4.0 mph 87% 0.00 in
08:49 70.7 °F 66.6 °F 29.87 in Calm   4.0 mph 87% 0.00 in
08:54 70.8 °F 66.4 °F 29.87 in SW 2.0 mph 6.0 mph 86% 0.00 in
08:59 70.6 °F 66.2 °F 29.87 in SW 2.0 mph 6.0 mph 86% 0.00 in
09:04 70.5 °F 65.8 °F 29.87 in WSW 6.0 mph 6.0 mph 85% 0.00 in
09:09 70.4 °F 65.7 °F 29.87 in SW 4.0 mph 7.0 mph 85% 0.00 in
09:14 70.4 °F 65.3 °F 29.86 in Calm   6.0 mph 84% 0.00 in
09:19 70.3 °F 65.6 °F 29.86 in SSW 3.0 mph 7.0 mph 85% 0.00 in
09:24 70.4 °F 65.7 °F 29.86 in SSW 2.0 mph 7.0 mph 85% 0.00 in
09:29 70.2 °F 65.5 °F 29.86 in South 3.0 mph 6.0 mph 85% 0.00 in
09:34 70.1 °F 65.4 °F 29.86 in Calm   5.0 mph 85% 0.01 in
09:39 70.2 °F 65.8 °F 29.86 in South 2.0 mph 4.0 mph 86% 0.01 in
09:44 70.4 °F 66.0 °F 29.86 in SSW 2.0 mph 6.0 mph 86% 0.01 in
09:49 70.4 °F 66.0 °F 29.86 in SSW 4.0 mph 9.0 mph 86% 0.01 in
09:54 70.5 °F 66.1 °F 29.86 in SSW 4.0 mph 9.0 mph 86% 0.01 in
09:59 70.8 °F 66.4 °F 29.86 in SSW 3.0 mph 7.0 mph 86% 0.01 in
10:04 71.1 °F 66.4 °F 29.86 in South 4.0 mph 8.0 mph 85% 0.01 in
10:09 71.5 °F 67.1 °F 29.87 in SSW 4.0 mph 8.0 mph 86% 0.01 in
10:14 71.3 °F 66.6 °F 29.87 in SW 2.0 mph 7.0 mph 85% 0.01 in
10:19 70.7 °F 65.6 °F 29.87 in SW 3.0 mph 8.0 mph 84% 0.01 in
10:24 70.5 °F 65.8 °F 29.86 in SW 3.0 mph 8.0 mph 85% 0.01 in
10:29 70.5 °F 65.8 °F 29.86 in Calm   7.0 mph 85% 0.01 in
10:34 70.6 °F 65.9 °F 29.86 in WSW 2.0 mph 5.0 mph 85% 0.00 in
10:39 70.5 °F 65.8 °F 29.87 in SW 5.0 mph 8.0 mph 85% 0.00 in
10:44 70.5 °F 65.8 °F 29.86 in SW 1.0 mph 6.0 mph 85% 0.00 in
10:49 70.6 °F 65.9 °F 29.86 in SW 3.0 mph 5.0 mph 85% 0.00 in
10:54 71.0 °F 66.3 °F 29.86 in WSW 3.0 mph 6.0 mph 85% 0.00 in
10:59 71.9 °F 66.8 °F 29.85 in SW 3.0 mph 7.0 mph 84% 0.00 in
11:04 72.8 °F 67.3 °F 29.85 in SSW 3.0 mph 7.0 mph 83% 0.00 in
11:09 73.1 °F 67.3 °F 29.85 in SSW 4.0 mph 9.0 mph 82% 0.00 in
11:14 73.7 °F 67.9 °F 29.85 in SSW 4.0 mph 9.0 mph 82% 0.00 in
11:19 74.4 °F 68.2 °F 29.85 in SW 6.0 mph 8.0 mph 81% 0.00 in
11:24 74.8 °F 68.2 °F 29.85 in SSE 3.0 mph 10.0 mph 80% 0.00 in
11:29 74.4 °F 68.2 °F 29.85 in SW 5.0 mph 10.0 mph 81% 0.00 in
11:34 74.0 °F 67.4 °F 29.85 in WSW 6.0 mph 11.0 mph 80% 0.00 in
11:39 73.8 °F 67.2 °F 29.85 in WSW 3.0 mph 12.0 mph 80% 0.00 in
11:44 74.1 °F 67.9 °F 29.86 in WSW 4.0 mph 9.0 mph 81% 0.00 in
11:49 74.0 °F 67.1 °F 29.85 in SW 4.0 mph 9.0 mph 79% 0.00 in
11:54 74.6 °F 68.0 °F 29.86 in SW 4.0 mph 10.0 mph 80% 0.00 in
11:59 74.8 °F 67.8 °F 29.86 in SW 5.0 mph 10.0 mph 79% 0.00 in
12:04 74.5 °F 67.2 °F 29.86 in SW 5.0 mph 10.0 mph 78% 0.00 in
12:09 74.3 °F 67.4 °F 29.85 in WSW 5.0 mph 11.0 mph 79% 0.00 in
12:14 74.2 °F 67.3 °F 29.85 in West 5.0 mph 10.0 mph 79% 0.00 in
12:19 74.4 °F 67.5 °F 29.86 in SW 6.0 mph 12.0 mph 79% 0.00 in
12:24 74.2 °F 67.6 °F 29.86 in WSW 5.0 mph 12.0 mph 80% 0.00 in
12:29 73.9 °F 67.3 °F 29.86 in WSW 7.0 mph 12.0 mph 80% 0.00 in
12:34 73.1 °F 67.3 °F 29.86 in SW 7.0 mph 15.0 mph 82% 0.02 in
12:39 71.9 °F 67.1 °F 29.86 in WNW 7.0 mph 12.0 mph 85% 0.02 in
12:44 71.3 °F 66.9 °F 29.86 in WNW 4.0 mph 14.0 mph 86% 0.02 in
12:49 71.1 °F 67.4 °F 29.85 in West 5.0 mph 14.0 mph 88% 0.02 in
12:54 71.5 °F 67.4 °F 29.85 in West 4.0 mph 9.0 mph 87% 0.02 in
12:59 71.7 °F 67.6 °F 29.86 in WSW 4.0 mph 9.0 mph 87% 0.02 in
13:04 71.6 °F 67.2 °F 29.86 in WSW 4.0 mph 10.0 mph 86% 0.02 in
13:09 71.3 °F 66.6 °F 29.86 in WSW 4.0 mph 12.0 mph 85% 0.02 in
13:14 71.4 °F 66.7 °F 29.86 in West 3.0 mph 13.0 mph 85% 0.02 in
13:19 71.9 °F 67.1 °F 29.86 in WSW 6.0 mph 13.0 mph 85% 0.02 in
13:24 72.4 °F 66.9 °F 29.86 in WSW 6.0 mph 13.0 mph 83% 0.02 in
13:29 72.2 °F 67.1 °F 29.86 in WSW 7.0 mph 18.0 mph 84% 0.02 in
13:34 73.3 °F 67.5 °F 29.86 in WSW 7.0 mph 18.0 mph 82% 0.00 in
13:39 73.4 °F 67.6 °F 29.86 in WSW 1.0 mph 13.0 mph 82% 0.00 in
13:44 73.4 °F 67.2 °F 29.86 in West 11.0 mph 12.0 mph 81% 0.00 in
13:49 73.4 °F 67.2 °F 29.87 in WSW 6.0 mph 12.0 mph 81% 0.00 in
13:54 73.1 °F 66.9 °F 29.86 in WSW 6.0 mph 13.0 mph 81% 0.00 in
13:59 73.3 °F 66.8 °F 29.87 in WSW 7.0 mph 15.0 mph 80% 0.00 in
14:04 73.5 °F 67.3 °F 29.87 in WSW 3.0 mph 10.0 mph 81% 0.00 in
14:09 73.7 °F 67.1 °F 29.87 in West 6.0 mph 13.0 mph 80% 0.00 in
14:14 73.6 °F 66.3 °F 29.87 in WSW 6.0 mph 15.0 mph 78% 0.00 in
14:19 73.4 °F 66.5 °F 29.87 in SW 11.0 mph 16.0 mph 79% 0.00 in
14:24 73.4 °F 66.5 °F 29.87 in WSW 8.0 mph 18.0 mph 79% 0.00 in
14:29 73.8 °F 66.9 °F 29.88 in WSW 8.0 mph 18.0 mph 79% 0.00 in
14:34 74.0 °F 66.7 °F 29.88 in WSW 8.0 mph 20.0 mph 78% 0.00 in
14:39 74.0 °F 66.7 °F 29.88 in WSW 9.0 mph 20.0 mph 78% 0.00 in
14:44 73.9 °F 66.6 °F 29.88 in WSW 9.0 mph 21.0 mph 78% 0.00 in
14:49 74.5 °F 67.6 °F 29.88 in WSW 8.0 mph 21.0 mph 79% 0.00 in
14:54 74.5 °F 67.6 °F 29.87 in SW 7.0 mph 14.0 mph 79% 0.00 in
14:59 75.3 °F 68.0 °F 29.87 in WSW 7.0 mph 12.0 mph 78% 0.00 in
15:04 74.6 °F 67.7 °F 29.88 in SSW 9.0 mph 14.0 mph 79% 0.00 in
15:09 73.7 °F 66.4 °F 29.88 in SSW 9.0 mph 18.0 mph 78% 0.00 in
15:14 73.5 °F 66.6 °F 29.88 in SW 8.0 mph 17.0 mph 79% 0.00 in
15:19 73.3 °F 66.8 °F 29.88 in SW 9.0 mph 15.0 mph 80% 0.00 in
15:24 73.5 °F 66.9 °F 29.87 in SW 8.0 mph 15.0 mph 80% 0.00 in
15:29 73.5 °F 66.6 °F 29.87 in SSW 6.0 mph 15.0 mph 79% 0.00 in
15:34 73.6 °F 67.0 °F 29.87 in WSW 8.0 mph 16.0 mph 80% 0.00 in
15:39 74.3 °F 67.7 °F 29.87 in WSW 7.0 mph 16.0 mph 80% 0.00 in
15:44 74.6 °F 67.7 °F 29.86 in SSW 5.0 mph 16.0 mph 79% 0.00 in
15:49 74.8 °F 67.5 °F 29.86 in WSW 6.0 mph 16.0 mph 78% 0.00 in
15:54 75.1 °F 67.4 °F 29.86 in SW 7.0 mph 16.0 mph 77% 0.00 in
15:59 75.1 °F 67.4 °F 29.86 in SW 7.0 mph 14.0 mph 77% 0.00 in
16:04 75.1 °F 67.0 °F 29.86 in WSW 4.0 mph 16.0 mph 76% 0.00 in
16:09 75.5 °F 67.8 °F 29.85 in West 6.0 mph 14.0 mph 77% 0.00 in
16:14 76.0 °F 68.3 °F 29.85 in WSW 5.0 mph 11.0 mph 77% 0.00 in
16:19 75.9 °F 67.8 °F 29.85 in West 8.0 mph 14.0 mph 76% 0.00 in
16:24 75.8 °F 67.7 °F 29.84 in WSW 7.0 mph 14.0 mph 76% 0.00 in
16:29 75.7 °F 67.2 °F 29.84 in SW 7.0 mph 14.0 mph 75% 0.00 in
16:34 76.0 °F 67.1 °F 29.84 in SW 7.0 mph 15.0 mph 74% 0.00 in
16:39 75.9 °F 67.4 °F 29.84 in WSW 7.0 mph 15.0 mph 75% 0.00 in
16:44 75.7 °F 67.2 °F 29.84 in WSW 8.0 mph 18.0 mph 75% 0.00 in
16:49 75.8 °F 67.3 °F 29.84 in SW 7.0 mph 16.0 mph 75% 0.00 in
16:54 75.3 °F 66.8 °F 29.84 in WSW 7.0 mph 14.0 mph 75% 0.00 in
16:59 75.6 °F 67.5 °F 29.84 in SW 13.0 mph 13.0 mph 76% 0.00 in
17:04 75.4 °F 66.9 °F 29.84 in WSW 5.0 mph 16.0 mph 75% 0.00 in
17:09 75.8 °F 67.3 °F 29.84 in WSW 6.0 mph 10.0 mph 75% 0.00 in
17:14 76.0 °F 67.5 °F 29.84 in WSW 8.0 mph 10.0 mph 75% 0.00 in
17:19 75.5 °F 67.0 °F 29.84 in SW 6.0 mph 14.0 mph 75% 0.00 in
17:24 75.3 °F 67.2 °F 29.84 in SW 7.0 mph 14.0 mph 76% 0.00 in
17:29 74.9 °F 66.8 °F 29.84 in SW 7.0 mph 13.0 mph 76% 0.00 in
17:34 74.8 °F 66.7 °F 29.84 in SW 7.0 mph 16.0 mph 76% 0.00 in
17:39 74.9 °F 67.2 °F 29.84 in SW 6.0 mph 16.0 mph 77% 0.00 in
17:44 75.0 °F 67.3 °F 29.84 in SW 6.0 mph 11.0 mph 77% 0.00 in
17:49 75.4 °F 66.5 °F 29.84 in WSW 8.0 mph 12.0 mph 74% 0.00 in
17:54 74.9 °F 66.4 °F 29.84 in WSW 6.0 mph 13.0 mph 75% 0.00 in
17:59 75.0 °F 66.5 °F 29.84 in West 5.0 mph 14.0 mph 75% 0.00 in
18:04 74.8 °F 66.7 °F 29.84 in WSW 5.0 mph 11.0 mph 76% 0.00 in
18:09 74.9 °F 66.1 °F 29.84 in WNW 6.0 mph 15.0 mph 74% 0.00 in
18:14 75.0 °F 66.5 °F 29.84 in SW 13.0 mph 14.0 mph 75% 0.00 in
18:19 74.8 °F 66.3 °F 29.84 in WSW 12.0 mph 13.0 mph 75% 0.00 in
18:24 74.7 °F 66.2 °F 29.84 in SW 8.0 mph 17.0 mph 75% 0.00 in
18:29 74.6 °F 66.1 °F 29.84 in WSW 8.0 mph 17.0 mph 75% 0.00 in
18:34 74.7 °F 66.2 °F 29.85 in WSW 7.0 mph 13.0 mph 75% 0.00 in
18:39 75.0 °F 66.1 °F 29.85 in SW 6.0 mph 9.0 mph 74% 0.00 in
18:44 74.8 °F 66.3 °F 29.85 in SSW 9.0 mph 10.0 mph 75% 0.00 in
18:49 74.6 °F 66.1 °F 29.84 in SW 4.0 mph 13.0 mph 75% 0.00 in
18:54 74.6 °F 66.1 °F 29.85 in SW 6.0 mph 13.0 mph 75% 0.00 in
19:04 74.0 °F 65.6 °F 29.85 in SW 7.0 mph 13.0 mph 75% 0.00 in
19:09 74.0 °F 66.0 °F 29.84 in West 4.0 mph 10.0 mph 76% 0.00 in
19:14 73.9 °F 65.5 °F 29.85 in West 7.0 mph 12.0 mph 75% 0.00 in
19:19 73.8 °F 65.8 °F 29.85 in WNW 5.0 mph 9.0 mph 76% 0.00 in
19:24 73.9 °F 65.9 °F 29.85 in SW 4.0 mph 9.0 mph 76% 0.00 in
19:29 73.8 °F 65.8 °F 29.85 in WSW 4.0 mph 7.0 mph 76% 0.00 in
19:34 73.6 °F 65.6 °F 29.86 in WSW 10.0 mph 10.0 mph 76% 0.00 in
19:39 73.3 °F 65.7 °F 29.86 in SW 4.0 mph 10.0 mph 77% 0.00 in
19:44 72.9 °F 65.6 °F 29.86 in SW 4.0 mph 10.0 mph 78% 0.00 in
19:49 72.6 °F 65.3 °F 29.86 in SW 5.0 mph 9.0 mph 78% 0.00 in
19:54 72.3 °F 65.4 °F 29.86 in WSW 4.0 mph 9.0 mph 79% 0.00 in
19:59 72.0 °F 65.5 °F 29.86 in WSW 4.0 mph 9.0 mph 80% 0.00 in
20:04 71.8 °F 65.3 °F 29.86 in WSW 4.0 mph 9.0 mph 80% 0.00 in
20:09 71.6 °F 65.5 °F 29.86 in WSW 3.0 mph 8.0 mph 81% 0.00 in
20:14 71.5 °F 65.4 °F 29.86 in WSW 3.0 mph 6.0 mph 81% 0.00 in
20:19 71.4 °F 65.3 °F 29.86 in WSW 2.0 mph 9.0 mph 81% 0.00 in
20:24 71.4 °F 65.3 °F 29.86 in SW 4.0 mph 6.0 mph 81% 0.00 in
20:29 71.3 °F 65.5 °F 29.86 in SW 2.0 mph 5.0 mph 82% 0.00 in
20:34 71.2 °F 65.4 °F 29.87 in WNW 5.0 mph 5.0 mph 82% 0.00 in
20:39 71.2 °F 65.4 °F 29.86 in SW 5.0 mph 7.0 mph 82% 0.00 in
20:44 71.0 °F 65.2 °F 29.86 in WSW 2.0 mph 5.0 mph 82% 0.00 in
20:49 70.9 °F 65.5 °F 29.87 in SW 3.0 mph 6.0 mph 83% 0.00 in
20:54 70.7 °F 65.3 °F 29.87 in SW 4.0 mph 7.0 mph 83% 0.00 in
20:59 70.5 °F 65.4 °F 29.87 in SW 3.0 mph 7.0 mph 84% 0.00 in
21:04 70.3 °F 65.2 °F 29.86 in SW 2.0 mph 5.0 mph 84% 0.00 in
21:09 70.2 °F 65.5 °F 29.86 in SW 2.0 mph 5.0 mph 85% 0.00 in
21:14 70.0 °F 65.3 °F 29.86 in SW 1.0 mph 5.0 mph 85% 0.00 in
21:19 69.9 °F 65.2 °F 29.86 in SSW 1.0 mph 3.0 mph 85% 0.00 in
21:24 69.9 °F 65.2 °F 29.86 in SW 1.0 mph 3.0 mph 85% 0.00 in
21:29 69.8 °F 65.1 °F 29.86 in Calm     85% 0.00 in
21:34 69.9 °F 65.2 °F 29.86 in SW 1.0 mph 4.0 mph 85% 0.00 in
21:39 70.0 °F 65.3 °F 29.86 in SSW 3.0 mph 4.0 mph 85% 0.00 in
21:44 70.1 °F 65.4 °F 29.86 in SW 2.0 mph 5.0 mph 85% 0.00 in
21:49 70.2 °F 65.1 °F 29.86 in SW 2.0 mph 5.0 mph 84% 0.00 in
21:54 70.4 °F 65.0 °F 29.86 in SSW 3.0 mph 5.0 mph 83% 0.00 in
21:59 70.6 °F 64.8 °F 29.86 in SW 3.0 mph 7.0 mph 82% 0.00 in
22:04 70.9 °F 64.8 °F 29.86 in SW 3.0 mph 7.0 mph 81% 0.00 in
22:09 71.1 °F 65.0 °F 29.87 in SW 3.0 mph 6.0 mph 81% 0.00 in
22:14 71.1 °F 64.6 °F 29.87 in SW 3.0 mph 6.0 mph 80% 0.00 in
22:19 71.3 °F 64.8 °F 29.86 in SW 1.0 mph 4.0 mph 80% 0.00 in
22:24 71.3 °F 64.4 °F 29.86 in SW 1.0 mph 5.0 mph 79% 0.00 in
22:29 71.3 °F 64.4 °F 29.86 in Calm   6.0 mph 79% 0.00 in
22:34 71.3 °F 64.4 °F 29.86 in SSW 1.0 mph 3.0 mph 79% 0.00 in
22:39 71.2 °F 64.4 °F 29.85 in Calm   3.0 mph 79% 0.00 in
22:44 71.1 °F 64.3 °F 29.85 in Calm     79% 0.00 in
22:49 71.0 °F 64.2 °F 29.86 in Calm     79% 0.00 in
22:54 71.0 °F 64.2 °F 29.86 in SW 1.0 mph 4.0 mph 79% 0.00 in
22:59 71.1 °F 64.3 °F 29.86 in SW 2.0 mph 6.0 mph 79% 0.00 in
23:04 71.2 °F 64.4 °F 29.86 in SW 2.0 mph 6.0 mph 79% 0.00 in
23:09 71.4 °F 64.5 °F 29.86 in SW 3.0 mph 7.0 mph 79% 0.00 in
23:14 71.5 °F 64.6 °F 29.87 in WSW 1.0 mph 7.0 mph 79% 0.00 in
23:19 71.6 °F 64.7 °F 29.87 in SW 4.0 mph 9.0 mph 79% 0.00 in
23:24 71.9 °F 65.0 °F 29.86 in WSW 4.0 mph 9.0 mph 79% 0.00 in
23:29 72.0 °F 65.5 °F 29.87 in WSW 5.0 mph 12.0 mph 80% 0.00 in
23:34 72.1 °F 65.6 °F 29.87 in WSW 5.0 mph 12.0 mph 80% 0.00 in
23:39 72.0 °F 66.2 °F 29.86 in WSW 5.0 mph 10.0 mph 82% 0.00 in
23:44 71.9 °F 66.1 °F 29.86 in WSW 4.0 mph 10.0 mph 82% 0.00 in
23:49 71.7 °F 66.3 °F 29.86 in West 4.0 mph 11.0 mph 83% 0.00 in
23:59 71.5 °F 66.4 °F 29.85 in WSW 4.0 mph 9.0 mph 84% 0.00 in
Buffalo, New York, USA
Compliments of Weather Underground - 2.5 mb